Weather History for Ada, OK

Change the Weather History Date:

Tuesday, September 17, 2013

  Actual Average Record
Temperature  
Mean Temperature 82 °F -  
Max Temperature 96 °F 85 °F 99 °F (1931)
Min Temperature 69 °F 61 °F 44 °F (1981)
Cooling Degree Days 18    
Growing Degree Days 32 (Base 50)    
Moisture  
Dew Point 65 °F    
Average Humidity 66    
Maximum Humidity 94    
Minimum Humidity 37    
Precipitation  
Precipitation 0.00 in - - ()
Sea Level Pressure  
Sea Level Pressure 30.06 in    
Wind  
Wind Speed 6 mph (SE)    
Max Wind Speed 24 mph    
Max Gust Speed 30 mph    
Visibility 10 miles    
Events Rain    
Averages and records for this station are not official NWS values.
T = Trace of Precipitation, MM = Missing Value Source: NWS Daily Summary

Daily Weather History Graph

Daily Weather History Graph

Search for Another Location

Airport:

Trip Planner

Search our weather history database for the weather conditions in past years. The results will help you decide how hot, cold, wet, or windy it might be!

Date:

Astronomy

Sep. 17, 2013 Rise Set
Actual Time 7:11 AM CDT 7:30 PM CDT
Civil Twilight 6:46 AM CDT 7:55 PM CDT
Nautical Twilight 6:16 AM CDT 8:25 PM CDT
Astronomical Twilight 5:46 AM CDT 8:55 PM CDT
Moon 6:16 PM CDT (9/17) 5:10 AM CDT (9/17)
Length of Visible Light 13h 09m
Length of Day
12h 18m
Waxing Gibbous, 96% of the Moon is Illuminated
Sep 17
Waxing Gibbous
Sep 19
Full
Sep 26
Last Quarter
Oct 4
New
Oct 11
First Quarter

Hourly Weather History & Observations

Time (CDT) Temp. Heat Index Dew Point Humidity Pressure Visibility Wind Dir Wind Speed Gust Speed Precip Events Conditions
12:15 AM 73.4 °F - 64.4 °F 73% 30.09 in 10.0 mi East 4.6 mph - N/A   Scattered Clouds
12:35 AM 73.4 °F - 64.4 °F 73% 30.09 in 10.0 mi East 4.6 mph - N/A   Overcast
12:55 AM 73.4 °F - 64.4 °F 73% 30.10 in 10.0 mi East 3.5 mph - N/A   Overcast
1:15 AM 73.4 °F - 64.4 °F 73% 30.10 in 10.0 mi East 3.5 mph - N/A   Mostly Cloudy
1:35 AM 73.4 °F - 64.4 °F 73% 30.09 in 10.0 mi Calm Calm - N/A   Scattered Clouds
1:55 AM 71.6 °F - 62.6 °F 73% 30.09 in 10.0 mi ESE 4.6 mph - N/A   Clear
2:15 AM 71.6 °F - 62.6 °F 73% 30.09 in 10.0 mi ESE 5.8 mph - N/A   Scattered Clouds
2:35 AM 71.6 °F - 62.6 °F 73% 30.09 in 10.0 mi SE 5.8 mph - N/A   Clear
2:55 AM 73.4 °F - 62.6 °F 69% 30.09 in 10.0 mi SE 6.9 mph - N/A   Scattered Clouds
3:15 AM 73.4 °F - 62.6 °F 69% 30.09 in 10.0 mi SE 8.1 mph - N/A   Scattered Clouds
3:35 AM 73.4 °F - 62.6 °F 69% 30.08 in 10.0 mi SE 8.1 mph - N/A   Clear
3:55 AM 73.4 °F - 62.6 °F 69% 30.08 in 10.0 mi SE 10.4 mph - N/A   Clear
4:15 AM 71.6 °F - 62.6 °F 73% 30.07 in 10.0 mi SE 10.4 mph - N/A   Clear
4:35 AM 71.6 °F - 60.8 °F 69% 30.07 in 10.0 mi SE 10.4 mph - N/A   Clear
4:55 AM 71.6 °F - 60.8 °F 69% 30.07 in 10.0 mi SE 10.4 mph - N/A   Clear
5:15 AM 71.6 °F - 60.8 °F 69% 30.07 in 10.0 mi SE 10.4 mph - N/A   Clear
5:35 AM 71.6 °F - 60.8 °F 69% 30.07 in 10.0 mi SSE 9.2 mph - N/A   Clear
5:55 AM 71.6 °F - 60.8 °F 69% 30.07 in 10.0 mi SE 9.2 mph - N/A   Mostly Cloudy
6:15 AM 71.6 °F - 60.8 °F 69% 30.09 in 10.0 mi West 6.9 mph - N/A   Scattered Clouds
6:35 AM 71.6 °F - 60.8 °F 69% 30.09 in 10.0 mi Calm Calm - N/A   Mostly Cloudy
6:55 AM 71.6 °F - 60.8 °F 69% 30.09 in 10.0 mi SE 3.5 mph - N/A   Scattered Clouds
7:15 AM 69.8 °F - 60.8 °F 73% 30.10 in 10.0 mi Calm Calm - N/A   Scattered Clouds
7:35 AM 69.8 °F - 60.8 °F 73% 30.11 in 10.0 mi Calm Calm - N/A   Clear
7:55 AM 71.6 °F - 59.0 °F 64% 30.11 in 10.0 mi East 6.9 mph - N/A   Clear
8:15 AM 71.6 °F - 60.8 °F 69% 30.11 in 10.0 mi ESE 5.8 mph - N/A   Clear
8:35 AM 73.4 °F - 59.0 °F 61% 30.11 in 10.0 mi SE 10.4 mph - N/A   Clear
8:55 AM 73.4 °F - 59.0 °F 61% 30.11 in 10.0 mi SE 11.5 mph 17.3 mph N/A   Clear
9:15 AM 75.2 °F - 60.8 °F 61% 30.12 in 10.0 mi SE 11.5 mph - N/A   Clear
9:35 AM 77.0 °F - 60.8 °F 57% 30.12 in 10.0 mi SE 11.5 mph - N/A   Clear
9:55 AM 78.8 °F - 60.8 °F 54% 30.12 in 10.0 mi SE 10.4 mph - N/A   Clear
10:15 AM 78.8 °F - 62.6 °F 57% 30.12 in 10.0 mi SE 10.4 mph - N/A   Scattered Clouds
10:35 AM 78.8 °F - 62.6 °F 57% 30.12 in 10.0 mi SSE 9.2 mph - N/A   Mostly Cloudy
10:55 AM 82.4 °F 83.4 °F 62.6 °F 51% 30.11 in 10.0 mi SSE 6.9 mph - N/A   Scattered Clouds
11:15 AM 84.2 °F 85.6 °F 64.4 °F 51% 30.11 in 10.0 mi SSE 8.1 mph - N/A   Clear
11:35 AM 86.0 °F 87.3 °F 64.4 °F 48% 30.11 in 10.0 mi SSE 6.9 mph - N/A   Scattered Clouds
11:55 AM 87.8 °F 90.4 °F 66.2 °F 49% 30.10 in 10.0 mi South 5.8 mph - N/A   Scattered Clouds
12:15 PM 87.8 °F 90.4 °F 66.2 °F 49% 30.10 in 10.0 mi South 5.8 mph - N/A   Clear
12:35 PM 87.8 °F 91.4 °F 68.0 °F 52% 30.09 in 10.0 mi South 5.8 mph - N/A   Clear
12:55 PM 89.6 °F 93.4 °F 68.0 °F 49% 30.08 in 10.0 mi SSE 8.1 mph - N/A   Clear
1:15 PM 91.4 °F 95.4 °F 68.0 °F 46% 30.07 in 10.0 mi South 6.9 mph - N/A   Clear
1:35 PM 91.4 °F 95.4 °F 68.0 °F 46% 30.06 in 10.0 mi SSE 4.6 mph - N/A   Clear
1:55 PM 93.2 °F 97.7 °F 68.0 °F 44% 30.05 in 10.0 mi SSE 6.9 mph - N/A   Clear
2:15 PM 89.6 °F 92.2 °F 66.2 °F 46% 30.04 in 10.0 mi SSW 3.5 mph - N/A   Scattered Clouds
2:35 PM 91.4 °F 95.4 °F 68.0 °F 46% 30.03 in 10.0 mi SE 10.4 mph - N/A   Mostly Cloudy
2:55 PM 96.8 °F 103.1 °F 69.8 °F 41% 30.02 in 10.0 mi SSE 4.6 mph - N/A   Scattered Clouds
3:15 PM 91.4 °F 94.0 °F 66.2 °F 43% 30.01 in 10.0 mi ESE 5.8 mph - N/A   Scattered Clouds
3:35 PM 91.4 °F 93.2 °F 64.4 °F 41% 30.00 in 10.0 mi SSE 9.2 mph - N/A   Scattered Clouds
3:55 PM 91.4 °F 94.0 °F 66.2 °F 43% 29.99 in 10.0 mi SE 6.9 mph - N/A   Scattered Clouds
4:15 PM 96.8 °F 100.7 °F 66.2 °F 37% 29.98 in 10.0 mi SE 8.1 mph - N/A   Clear
4:35 PM 95.0 °F 98.5 °F 66.2 °F 39% 29.98 in 10.0 mi SE 5.8 mph - N/A   Clear
4:55 PM 89.6 °F 91.1 °F 64.4 °F 43% 29.97 in 10.0 mi SSE 4.6 mph - N/A   Scattered Clouds
5:15 PM 89.6 °F 91.1 °F 64.4 °F 43% 29.97 in 10.0 mi SSE 6.9 mph - N/A   Scattered Clouds
5:35 PM 87.8 °F 89.4 °F 64.4 °F 46% 29.98 in 10.0 mi SE 24.2 mph 29.9 mph N/A   Mostly Cloudy
5:55 PM 80.6 °F 83.2 °F 68.0 °F 65% 29.99 in 10.0 mi ESE 15.0 mph 20.7 mph N/A   Mostly Cloudy
6:15 PM 80.6 °F 83.2 °F 68.0 °F 65% 30.00 in 10.0 mi SE 11.5 mph - N/A   Overcast
6:35 PM 78.8 °F - 68.0 °F 69% 30.01 in 10.0 mi Calm Calm - N/A Rain Rain
6:55 PM 77.0 °F - 69.8 °F 78% 30.01 in 10.0 mi Calm Calm - N/A   Overcast
7:15 PM 77.0 °F - 68.0 °F 74% 30.00 in 10.0 mi Calm Calm - N/A Rain Light Rain
7:35 PM 73.4 °F - 68.0 °F 83% 30.00 in 10.0 mi West 4.6 mph - N/A Rain Light Rain
7:55 PM 71.6 °F - 68.0 °F 88% 29.99 in 10.0 mi Calm Calm - N/A Rain Light Rain
8:15 PM 71.6 °F - 68.0 °F 88% 30.00 in 10.0 mi WNW 3.5 mph - N/A   Scattered Clouds
8:35 PM 71.6 °F - 68.0 °F 88% 30.00 in 10.0 mi Calm Calm - N/A Rain Light Rain
8:55 PM 71.6 °F - 69.8 °F 94% 30.01 in 10.0 mi Calm Calm - N/A   Clear
9:15 PM 71.6 °F - 69.8 °F 94% 30.01 in 10.0 mi East 5.8 mph - N/A   Clear
9:35 PM 71.6 °F - 68.0 °F 88% 30.01 in 10.0 mi East 4.6 mph - N/A   Clear
9:55 PM 71.6 °F - 69.8 °F 94% 30.02 in 10.0 mi Calm Calm - N/A   Clear
10:15 PM 71.6 °F - 69.8 °F 94% 30.02 in 10.0 mi Calm Calm - N/A   Clear
10:35 PM 71.6 °F - 69.8 °F 94% 30.02 in 10.0 mi East 3.5 mph - N/A   Clear
10:55 PM 71.6 °F - 69.8 °F 94% 30.02 in 10.0 mi Calm Calm - N/A   Clear
11:15 PM 71.6 °F - 69.8 °F 94% 30.02 in 10.0 mi ESE 4.6 mph - N/A   Clear
11:35 PM 71.6 °F - 69.8 °F 94% 30.02 in 10.0 mi SE 4.6 mph - N/A   Mostly Cloudy
11:55 PM 71.6 °F - 69.8 °F 94% 30.01 in 10.0 mi SE 3.5 mph - N/A   Scattered Clouds